Time,TemperatureF,DewpointF,PressureIn,WindDirection,WindDirectionDegrees,WindSpeedMPH,WindSpeedGustMPH,Humidity,HourlyPrecipIn,Conditions,Clouds,dailyrainin,SolarRadiationWatts/m^2,SoftwareType,DateUTC
2013-04-22 06:30:00,32.5,31.0,30.53,North,5,1.0,1.0,94,0.00,,,0.00,5,Wunderground v.1.15,2013-04-22 10:30:00,
2013-04-22 06:35:00,32.7,31.2,30.53,North,360,2.0,5.0,94,0.00,,,0.00,7,Wunderground v.1.15,2013-04-22 10:35:00,
2013-04-22 06:40:00,32.9,31.4,30.54,NNE,15,1.0,2.0,94,0.00,,,0.00,14,Wunderground v.1.15,2013-04-22 10:40:00,
2013-04-22 06:45:00,32.6,31.1,30.54,North,360,3.0,3.0,94,0.00,,,0.00,19,Wunderground v.1.15,2013-04-22 10:45:00,
2013-04-22 06:50:00,32.8,31.3,30.54,North,5,3.0,3.0,94,0.00,,,0.00,25,Wunderground v.1.15,2013-04-22 10:50:00,
2013-04-22 06:55:00,32.9,31.4,30.54,North,9,2.0,4.0,94,0.00,,,0.00,32,Wunderground v.1.15,2013-04-22 10:55:00,
2013-04-22 07:00:00,33.0,31.5,30.54,North,5,4.0,4.0,94,0.00,,,0.00,63,Wunderground v.1.15,2013-04-22 11:00:00,
2013-04-22 07:05:00,33.3,31.8,30.54,NNE,26,3.0,6.0,94,0.00,,,0.00,83,Wunderground v.1.15,2013-04-22 11:05:00,
2013-04-22 08:15:00,39.6,35.8,30.53,NE,36,8.0,8.0,86,0.00,,,0.00,346,Wunderground v.1.15,2013-04-22 12:15:00,
2013-04-22 08:20:00,40.0,35.9,30.53,NE,43,10.0,11.0,85,0.00,,,0.00,366,Wunderground v.1.15,2013-04-22 12:20:00,
2013-04-22 08:25:00,40.3,35.8,30.53,NNE,28,9.0,11.0,84,0.00,,,0.00,385,Wunderground v.1.15,2013-04-22 12:25:00,
2013-04-22 08:30:00,40.7,35.9,30.53,North,360,5.0,11.0,83,0.00,,,0.00,401,Wunderground v.1.15,2013-04-22 12:30:00,
2013-04-22 08:35:00,41.1,35.7,30.53,North,5,8.0,10.0,81,0.00,,,0.00,420,Wunderground v.1.15,2013-04-22 12:35:00,
2013-04-22 08:40:00,41.4,35.7,30.53,NNE,28,7.0,15.0,80,0.00,,,0.00,439,Wunderground v.1.15,2013-04-22 12:40:00,
2013-04-22 08:45:00,42.1,36.1,30.53,North,360,7.0,10.0,79,0.00,,,0.00,461,Wunderground v.1.15,2013-04-22 12:45:00,
2013-04-22 08:50:00,42.3,35.6,30.52,NNE,29,13.0,14.0,77,0.00,,,0.00,476,Wunderground v.1.15,2013-04-22 12:50:00,
2013-04-22 08:56:00,42.6,35.6,30.53,NNE,19,8.0,13.0,76,0.00,,,0.00,496,Wunderground v.1.15,2013-04-22 12:56:00,
2013-04-22 09:01:00,43.0,36.0,30.52,North,5,8.0,9.0,76,0.00,,,0.00,526,Wunderground v.1.15,2013-04-22 13:01:00,
2013-04-22 09:06:00,43.4,35.7,30.53,NE,46,5.0,13.0,74,0.00,,,0.00,531,Wunderground v.1.15,2013-04-22 13:06:00,
2013-04-22 09:11:00,44.3,36.9,30.53,NE,47,9.0,9.0,75,0.00,,,0.00,548,Wunderground v.1.15,2013-04-22 13:11:00,
2013-04-22 09:16:00,44.7,36.6,30.53,NNE,22,10.0,15.0,73,0.00,,,0.00,564,Wunderground v.1.15,2013-04-22 13:16:00,
2013-04-22 09:21:00,44.9,36.8,30.53,ENE,73,8.0,12.0,73,0.00,,,0.00,596,Wunderground v.1.15,2013-04-22 13:21:00,
2013-04-22 09:26:00,45.1,37.0,30.53,NE,34,7.0,14.0,73,0.00,,,0.00,272,Wunderground v.1.15,2013-04-22 13:26:00,
2013-04-22 09:31:00,45.4,37.2,30.53,North,11,4.0,10.0,73,0.00,,,0.00,640,Wunderground v.1.15,2013-04-22 13:31:00,
2013-04-22 09:36:00,46.3,37.4,30.53,NNE,31,8.0,11.0,71,0.00,,,0.00,705,Wunderground v.1.15,2013-04-22 13:36:00,
2013-04-22 09:41:00,46.1,37.2,30.53,NE,52,4.0,10.0,71,0.00,,,0.00,763,Wunderground v.1.15,2013-04-22 13:41:00,
2013-04-22 09:46:00,46.9,38.0,30.53,ENE,59,9.0,11.0,71,0.00,,,0.00,396,Wunderground v.1.15,2013-04-22 13:46:00,
2013-04-22 09:51:00,47.1,37.8,30.53,North,5,10.0,10.0,70,0.00,,,0.00,654,Wunderground v.1.15,2013-04-22 13:51:00,
2013-04-22 09:56:00,47.3,38.4,30.53,NNE,21,7.0,13.0,71,0.00,,,0.00,482,Wunderground v.1.15,2013-04-22 13:56:00,
2013-04-22 10:01:00,47.5,38.6,30.53,NE,55,5.0,10.0,71,0.00,,,0.00,814,Wunderground v.1.15,2013-04-22 14:01:00,
2013-04-22 10:06:00,48.0,39.4,30.53,NE,34,7.0,14.0,72,0.00,,,0.00,784,Wunderground v.1.15,2013-04-22 14:06:00,
2013-04-22 10:11:00,48.7,38.6,30.53,NE,35,6.0,14.0,68,0.00,,,0.00,763,Wunderground v.1.15,2013-04-22 14:11:00,
2013-04-22 10:16:00,49.1,39.4,30.53,ENE,77,8.0,14.0,69,0.00,,,0.00,809,Wunderground v.1.15,2013-04-22 14:16:00,
2013-04-22 10:21:00,49.0,38.9,30.53,NE,40,10.0,14.0,68,0.00,,,0.00,844,Wunderground v.1.15,2013-04-22 14:21:00,
2013-04-22 10:26:00,48.8,38.7,30.53,NE,40,7.0,14.0,68,0.00,,,0.00,403,Wunderground v.1.15,2013-04-22 14:26:00,
2013-04-22 10:31:00,49.3,39.2,30.53,ENE,68,10.0,10.0,68,0.00,,,0.00,276,Wunderground v.1.15,2013-04-22 14:31:00,
2013-04-22 10:36:00,49.5,39.0,30.53,NE,48,7.0,13.0,67,0.00,,,0.00,923,Wunderground v.1.15,2013-04-22 14:36:00,
2013-04-22 10:41:00,49.7,38.8,30.53,ENE,74,8.0,13.0,66,0.00,,,0.00,904,Wunderground v.1.15,2013-04-22 14:41:00,
2013-04-22 10:47:00,49.9,38.6,30.52,NE,55,6.0,13.0,65,0.00,,,0.00,904,Wunderground v.1.15,2013-04-22 14:47:00,
2013-04-22 10:52:00,50.6,40.0,30.52,NNE,28,7.0,8.0,67,0.00,,,0.00,891,Wunderground v.1.15,2013-04-22 14:52:00,
2013-04-22 10:57:00,50.7,39.4,30.52,North,355,3.0,8.0,65,0.00,,,0.00,343,Wunderground v.1.15,2013-04-22 14:57:00,
2013-04-22 11:02:00,50.3,38.6,30.52,NNE,17,5.0,11.0,64,0.00,,,0.00,879,Wunderground v.1.15,2013-04-22 15:02:00,
2013-04-22 11:07:00,50.7,39.0,30.52,NNE,21,8.0,11.0,64,0.00,,,0.00,877,Wunderground v.1.15,2013-04-22 15:07:00,
2013-04-22 11:12:00,50.8,38.2,30.52,NE,56,7.0,15.0,62,0.00,,,0.00,884,Wunderground v.1.15,2013-04-22 15:12:00,
2013-04-22 11:17:00,51.7,37.8,30.51,ENE,78,5.0,15.0,59,0.00,,,0.00,905,Wunderground v.1.15,2013-04-22 15:17:00,
2013-04-22 11:22:00,52.0,38.5,30.51,NE,39,7.0,14.0,60,0.00,,,0.00,889,Wunderground v.1.15,2013-04-22 15:22:00,
2013-04-22 11:27:00,52.3,38.8,30.51,East,84,5.0,14.0,60,0.00,,,0.00,891,Wunderground v.1.15,2013-04-22 15:27:00,
2013-04-22 11:32:00,52.6,39.1,30.50,NE,44,9.0,15.0,60,0.00,,,0.00,904,Wunderground v.1.15,2013-04-22 15:32:00,
2013-04-22 11:37:00,52.7,38.3,30.50,NE,40,8.0,15.0,58,0.00,,,0.00,907,Wunderground v.1.15,2013-04-22 15:37:00,
2013-04-22 11:42:00,52.1,38.2,30.50,ENE,63,4.0,9.0,59,0.00,,,0.00,921,Wunderground v.1.15,2013-04-22 15:42:00,
2013-04-22 11:47:00,53.0,38.2,30.50,NE,34,11.0,15.0,57,0.00,,,0.00,933,Wunderground v.1.15,2013-04-22 15:47:00,
2013-04-22 11:52:00,53.0,38.2,30.50,NE,49,5.0,11.0,57,0.00,,,0.00,940,Wunderground v.1.15,2013-04-22 15:52:00,
2013-04-22 11:57:00,53.2,37.4,30.49,NE,45,10.0,14.0,55,0.00,,,0.00,977,Wunderground v.1.15,2013-04-22 15:57:00,
2013-04-22 12:02:00,54.0,38.6,30.49,ENE,63,11.0,15.0,56,0.00,,,0.00,970,Wunderground v.1.15,2013-04-22 16:02:00,
2013-04-22 12:07:00,54.0,37.7,30.49,East,98,8.0,15.0,54,0.00,,,0.00,953,Wunderground v.1.15,2013-04-22 16:07:00,
2013-04-22 12:12:00,54.2,38.8,30.49,NNE,27,6.0,13.0,56,0.00,,,0.00,301,Wunderground v.1.15,2013-04-22 16:12:00,
2013-04-22 12:17:00,54.2,37.9,30.50,ENE,62,13.0,16.0,54,0.00,,,0.00,967,Wunderground v.1.15,2013-04-22 16:17:00,
2013-04-22 12:22:00,54.1,37.3,30.49,SE,141,2.0,13.0,53,0.00,,,0.00,947,Wunderground v.1.15,2013-04-22 16:22:00,
2013-04-22 12:27:00,53.9,38.6,30.49,North,10,11.0,13.0,56,0.00,,,0.00,974,Wunderground v.1.15,2013-04-22 16:27:00,
2013-04-22 12:32:00,54.5,38.2,30.49,NNE,19,10.0,12.0,54,0.00,,,0.00,1071,Wunderground v.1.15,2013-04-22 16:32:00,
2013-04-22 12:37:00,54.0,38.6,30.49,NE,46,7.0,15.0,56,0.00,,,0.00,911,Wunderground v.1.15,2013-04-22 16:37:00,
2013-04-22 12:42:00,54.3,38.5,30.49,ENE,58,3.0,15.0,55,0.00,,,0.00,933,Wunderground v.1.15,2013-04-22 16:42:00,
2013-04-22 12:47:00,55.5,37.7,30.48,ENE,66,7.0,15.0,51,0.00,,,0.00,944,Wunderground v.1.15,2013-04-22 16:47:00,
2013-04-22 12:52:00,55.5,38.1,30.48,East,81,5.0,10.0,52,0.00,,,0.00,956,Wunderground v.1.15,2013-04-22 16:52:00,
2013-04-22 12:57:00,56.6,38.2,30.48,East,82,9.0,12.0,50,0.00,,,0.00,1078,Wunderground v.1.15,2013-04-22 16:57:00,
2013-04-22 13:02:00,56.3,39.4,30.48,NE,42,6.0,12.0,53,0.00,,,0.00,1000,Wunderground v.1.15,2013-04-22 17:02:00,
2013-04-22 13:07:00,56.2,38.8,30.48,ESE,122,8.0,12.0,52,0.00,,,0.00,965,Wunderground v.1.15,2013-04-22 17:07:00,
2013-04-22 13:12:00,56.3,38.4,30.47,ENE,69,9.0,15.0,51,0.00,,,0.00,984,Wunderground v.1.15,2013-04-22 17:12:00,
2013-04-22 13:17:00,56.4,38.5,30.47,ENE,58,8.0,15.0,51,0.00,,,0.00,984,Wunderground v.1.15,2013-04-22 17:17:00,
2013-04-22 13:22:00,56.5,39.1,30.47,North,360,8.0,13.0,52,0.00,,,0.00,940,Wunderground v.1.15,2013-04-22 17:22:00,
2013-04-22 13:27:00,56.5,41.0,30.46,NNE,24,8.0,13.0,56,0.00,,,0.00,933,Wunderground v.1.15,2013-04-22 17:27:00,
2013-04-22 13:32:00,57.1,40.6,30.46,NNE,22,6.0,11.0,54,0.00,,,0.00,1081,Wunderground v.1.15,2013-04-22 17:32:00,
2013-04-22 13:37:00,57.3,38.8,30.46,NE,43,4.0,11.0,50,0.00,,,0.00,592,Wunderground v.1.15,2013-04-22 17:37:00,
2013-04-22 13:43:00,57.6,39.1,30.45,NE,50,7.0,15.0,50,0.00,,,0.00,824,Wunderground v.1.15,2013-04-22 17:43:00,
2013-04-22 13:48:00,58.2,40.1,30.45,NE,40,6.0,15.0,51,0.00,,,0.00,1093,Wunderground v.1.15,2013-04-22 17:48:00,
2013-04-22 13:53:00,57.7,39.2,30.45,NNE,20,6.0,11.0,50,0.00,,,0.00,503,Wunderground v.1.15,2013-04-22 17:53:00,
2013-04-22 13:58:00,57.6,40.1,30.44,NNE,26,5.0,13.0,52,0.00,,,0.00,874,Wunderground v.1.15,2013-04-22 17:58:00,
2013-04-22 14:03:00,58.4,39.8,30.44,NE,34,3.0,15.0,50,0.00,,,0.00,889,Wunderground v.1.15,2013-04-22 18:03:00,
2013-04-22 14:08:00,58.3,40.2,30.44,ENE,61,5.0,15.0,51,0.00,,,0.00,886,Wunderground v.1.15,2013-04-22 18:08:00,
2013-04-22 14:13:00,57.9,38.8,30.44,ENE,77,4.0,12.0,49,0.00,,,0.00,881,Wunderground v.1.15,2013-04-22 18:13:00,
2013-04-22 14:18:00,58.2,39.1,30.43,NE,54,9.0,19.0,49,0.00,,,0.00,893,Wunderground v.1.15,2013-04-22 18:18:00,
2013-04-22 14:23:00,59.1,38.9,30.43,ENE,71,9.0,13.0,47,0.00,,,0.00,1042,Wunderground v.1.15,2013-04-22 18:23:00,
2013-04-22 14:28:00,58.7,39.0,30.42,NNE,25,9.0,14.0,48,0.00,,,0.00,526,Wunderground v.1.15,2013-04-22 18:28:00,
2013-04-22 14:33:00,58.6,39.5,30.42,North,11,8.0,12.0,49,0.00,,,0.00,881,Wunderground v.1.15,2013-04-22 18:33:00,
2013-04-22 14:38:00,59.1,39.4,30.42,NE,53,7.0,18.0,48,0.00,,,0.00,844,Wunderground v.1.15,2013-04-22 18:38:00,
2013-04-22 14:43:00,59.2,39.5,30.42,ENE,69,8.0,14.0,48,0.00,,,0.00,849,Wunderground v.1.15,2013-04-22 18:43:00,
2013-04-22 14:48:00,59.2,39.5,30.42,NNE,13,11.0,14.0,48,0.00,,,0.00,784,Wunderground v.1.15,2013-04-22 18:48:00,
2013-04-22 14:53:00,58.8,39.1,30.42,East,83,9.0,15.0,48,0.00,,,0.00,596,Wunderground v.1.15,2013-04-22 18:53:00,
2013-04-22 14:58:00,58.2,39.1,30.42,ENE,71,8.0,15.0,49,0.00,,,0.00,638,Wunderground v.1.15,2013-04-22 18:58:00,
2013-04-22 15:03:00,59.5,39.2,30.41,ENE,57,9.0,14.0,47,0.00,,,0.00,519,Wunderground v.1.15,2013-04-22 19:03:00,
2013-04-22 15:08:00,58.9,39.2,30.41,NE,50,6.0,14.0,48,0.00,,,0.00,501,Wunderground v.1.15,2013-04-22 19:08:00,
2013-04-22 15:13:00,59.1,41.5,30.41,NNE,14,5.0,10.0,52,0.00,,,0.00,559,Wunderground v.1.15,2013-04-22 19:13:00,
2013-04-22 15:18:00,59.6,39.3,30.41,North,11,8.0,14.0,47,0.00,,,0.00,642,Wunderground v.1.15,2013-04-22 19:18:00,
2013-04-22 15:23:00,59.6,40.4,30.40,NE,34,7.0,13.0,49,0.00,,,0.00,445,Wunderground v.1.15,2013-04-22 19:23:00,
2013-04-22 15:28:00,59.4,39.7,30.40,ENE,67,7.0,13.0,48,0.00,,,0.00,401,Wunderground v.1.15,2013-04-22 19:28:00,
2013-04-22 15:33:00,59.2,39.5,30.40,NE,55,7.0,12.0,48,0.00,,,0.00,425,Wunderground v.1.15,2013-04-22 19:33:00,
2013-04-22 15:38:00,59.2,40.0,30.40,NE,36,8.0,12.0,49,0.00,,,0.00,392,Wunderground v.1.15,2013-04-22 19:38:00,
2013-04-22 15:43:00,59.1,39.4,30.40,ENE,59,10.0,12.0,48,0.00,,,0.00,399,Wunderground v.1.15,2013-04-22 19:43:00,
2013-04-22 15:49:00,58.9,39.8,30.40,NE,56,6.0,12.0,49,0.00,,,0.00,399,Wunderground v.1.15,2013-04-22 19:49:00,
2013-04-22 15:54:00,58.9,40.3,30.40,ENE,57,8.0,11.0,50,0.00,,,0.00,271,Wunderground v.1.15,2013-04-22 19:54:00,
2013-04-22 15:59:00,58.9,39.2,30.40,ENE,67,11.0,11.0,48,0.00,,,0.00,267,Wunderground v.1.15,2013-04-22 19:59:00,
2013-04-22 16:04:00,58.8,39.7,30.40,NNE,24,6.0,13.0,49,0.00,,,0.00,272,Wunderground v.1.15,2013-04-22 20:04:00,
2013-04-22 16:09:00,58.6,39.5,30.39,NE,55,5.0,15.0,49,0.00,,,0.00,214,Wunderground v.1.15,2013-04-22 20:09:00,
2013-04-22 16:14:00,58.4,39.8,30.39,NNE,24,8.0,12.0,50,0.00,,,0.00,248,Wunderground v.1.15,2013-04-22 20:14:00,
2013-04-22 16:19:00,58.2,40.6,30.39,NE,35,5.0,12.0,52,0.00,,,0.00,239,Wunderground v.1.15,2013-04-22 20:19:00,
2013-04-22 16:24:00,57.9,40.4,30.39,NNE,32,3.0,13.0,52,0.00,,,0.00,306,Wunderground v.1.15,2013-04-22 20:24:00,
2013-04-22 16:29:00,58.5,40.4,30.39,NE,40,9.0,13.0,51,0.00,,,0.00,320,Wunderground v.1.15,2013-04-22 20:29:00,
2013-04-22 16:34:00,58.3,40.2,30.39,NNE,22,9.0,16.0,51,0.00,,,0.00,348,Wunderground v.1.15,2013-04-22 20:34:00,
2013-04-22 16:39:00,58.2,40.6,30.38,NNE,19,7.0,16.0,52,0.00,,,0.00,308,Wunderground v.1.15,2013-04-22 20:39:00,
2013-04-22 16:44:00,58.4,40.3,30.38,ENE,58,5.0,13.0,51,0.00,,,0.00,223,Wunderground v.1.15,2013-04-22 20:44:00,
2013-04-22 16:49:00,58.3,40.2,30.38,NE,42,10.0,13.0,51,0.00,,,0.00,193,Wunderground v.1.15,2013-04-22 20:49:00,
2013-04-22 16:54:00,58.4,40.8,30.38,North,9,7.0,9.0,52,0.00,,,0.00,192,Wunderground v.1.15,2013-04-22 20:54:00,
2013-04-22 16:59:00,58.5,40.4,30.38,NE,36,7.0,14.0,51,0.00,,,0.00,172,Wunderground v.1.15,2013-04-22 20:59:00,
2013-04-22 17:04:00,58.4,40.8,30.38,East,84,9.0,15.0,52,0.00,,,0.00,155,Wunderground v.1.15,2013-04-22 21:04:00,
2013-04-22 17:09:00,58.0,40.5,30.38,NE,40,7.0,15.0,52,0.00,,,0.00,135,Wunderground v.1.15,2013-04-22 21:09:00,
2013-04-22 17:14:00,57.7,41.2,30.38,North,9,8.0,10.0,54,0.00,,,0.00,148,Wunderground v.1.15,2013-04-22 21:14:00,
2013-04-22 17:19:00,57.6,40.6,30.38,NE,34,6.0,11.0,53,0.00,,,0.00,172,Wunderground v.1.15,2013-04-22 21:19:00,
2013-04-22 17:24:00,57.9,41.3,30.38,NE,42,5.0,11.0,54,0.00,,,0.00,183,Wunderground v.1.15,2013-04-22 21:24:00,
2013-04-22 17:29:00,57.8,41.3,30.38,NW,318,6.0,12.0,54,0.00,,,0.00,183,Wunderground v.1.15,2013-04-22 21:29:00,
2013-04-22 17:34:00,57.6,41.5,30.38,NNE,23,5.0,13.0,55,0.00,,,0.00,171,Wunderground v.1.15,2013-04-22 21:34:00,
2013-04-22 17:39:00,57.5,41.4,30.38,NE,36,4.0,13.0,55,0.00,,,0.00,156,Wunderground v.1.15,2013-04-22 21:39:00,
2013-04-22 17:44:00,57.6,41.1,30.38,NE,43,6.0,11.0,54,0.00,,,0.00,185,Wunderground v.1.15,2013-04-22 21:44:00,
2013-04-22 17:49:00,57.8,41.3,30.38,NE,51,14.0,14.0,54,0.00,,,0.00,190,Wunderground v.1.15,2013-04-22 21:49:00,
2013-04-22 17:54:00,57.7,41.2,30.38,NNE,28,7.0,12.0,54,0.00,,,0.00,146,Wunderground v.1.15,2013-04-22 21:54:00,
2013-04-22 17:59:00,57.8,41.3,30.38,NE,36,11.0,12.0,54,0.00,,,0.00,149,Wunderground v.1.15,2013-04-22 21:59:00,
2013-04-22 18:04:00,57.8,41.3,30.38,NE,48,7.0,13.0,54,0.00,,,0.00,144,Wunderground v.1.15,2013-04-22 22:04:00,
2013-04-22 18:09:00,58.1,41.5,30.38,NE,52,7.0,13.0,54,0.00,,,0.00,113,Wunderground v.1.15,2013-04-22 22:09:00,
2013-04-22 18:14:00,58.0,41.4,30.38,NE,39,7.0,12.0,54,0.00,,,0.00,81,Wunderground v.1.15,2013-04-22 22:14:00,
2013-04-22 18:19:00,57.9,41.3,30.38,NE,40,3.0,12.0,54,0.00,,,0.00,69,Wunderground v.1.15,2013-04-22 22:19:00,
2013-04-22 18:24:00,57.9,41.8,30.38,NE,40,12.0,12.0,55,0.00,,,0.00,65,Wunderground v.1.15,2013-04-22 22:24:00,
2013-04-22 18:29:00,57.5,41.4,30.38,NE,40,7.0,12.0,55,0.00,,,0.00,74,Wunderground v.1.15,2013-04-22 22:29:00,
2013-04-22 18:34:00,57.3,41.7,30.37,ENE,74,8.0,11.0,56,0.00,,,0.00,62,Wunderground v.1.15,2013-04-22 22:34:00,
2013-04-22 18:39:00,57.2,41.6,30.37,NE,47,6.0,11.0,56,0.00,,,0.00,49,Wunderground v.1.15,2013-04-22 22:39:00,
2013-04-22 18:44:00,57.0,41.4,30.37,NE,43,3.0,12.0,56,0.00,,,0.00,42,Wunderground v.1.15,2013-04-22 22:44:00,
2013-04-22 18:49:00,56.7,42.1,30.37,East,83,7.0,12.0,58,0.00,,,0.00,53,Wunderground v.1.15,2013-04-22 22:49:00,
2013-04-22 18:54:00,56.9,41.8,30.37,East,97,6.0,11.0,57,0.00,,,0.00,44,Wunderground v.1.15,2013-04-22 22:54:00,
2013-04-22 18:59:00,56.8,42.2,30.37,NE,50,3.0,11.0,58,0.00,,,0.00,32,Wunderground v.1.15,2013-04-22 22:59:00,
2013-04-22 19:04:00,56.5,41.9,30.37,NE,34,8.0,9.0,58,0.00,,,0.00,25,Wunderground v.1.15,2013-04-22 23:04:00,
2013-04-22 19:10:00,56.3,41.7,30.38,NNE,28,7.0,7.0,58,0.00,,,0.00,23,Wunderground v.1.15,2013-04-22 23:10:00,
2013-04-22 19:15:00,56.2,42.1,30.38,East,92,3.0,10.0,59,0.00,,,0.00,19,Wunderground v.1.15,2013-04-22 23:15:00,
2013-04-22 19:20:00,56.2,42.1,30.38,NNE,25,3.0,7.0,59,0.00,,,0.00,21,Wunderground v.1.15,2013-04-22 23:20:00,
2013-04-22 19:25:00,56.3,42.1,30.38,ENE,66,8.0,12.0,59,0.00,,,0.00,18,Wunderground v.1.15,2013-04-22 23:25:00,
2013-04-22 19:30:00,56.2,42.1,30.38,ENE,57,11.0,11.0,59,0.00,,,0.00,14,Wunderground v.1.15,2013-04-22 23:30:00,
2013-04-22 19:35:00,56.2,42.1,30.38,ENE,74,5.0,12.0,59,0.00,,,0.00,12,Wunderground v.1.15,2013-04-22 23:35:00,
2013-04-22 19:40:00,56.3,41.7,30.38,NE,53,7.0,10.0,58,0.00,,,0.00,9,Wunderground v.1.15,2013-04-22 23:40:00,
2013-04-22 19:45:00,56.2,41.6,30.38,NE,39,9.0,10.0,58,0.00,,,0.00,5,Wunderground v.1.15,2013-04-22 23:45:00,
2013-04-22 19:50:00,56.0,41.9,30.38,NNE,26,9.0,9.0,59,0.00,,,0.00,0,Wunderground v.1.15,2013-04-22 23:50:00,
2013-04-22 19:55:00,55.8,41.7,30.38,NNE,13,5.0,11.0,59,0.00,,,0.00,0,Wunderground v.1.15,2013-04-22 23:55:00,
2013-04-22 20:00:00,55.7,42.0,30.38,NE,45,5.0,7.0,60,0.00,,,0.00,0,Wunderground v.1.15,2013-04-23 00:00:00,
2013-04-22 20:05:00,55.8,42.1,30.38,ENE,60,5.0,10.0,60,0.00,,,0.00,0,Wunderground v.1.15,2013-04-23 00:05:00,
2013-04-22 20:10:00,55.7,42.0,30.39,ENE,58,4.0,8.0,60,0.00,,,0.00,0,Wunderground v.1.15,2013-04-23 00:10:00,
2013-04-22 20:15:00,55.7,42.5,30.39,ENE,67,4.0,9.0,61,0.00,,,0.00,0,Wunderground v.1.15,2013-04-23 00:15:00,
2013-04-22 20:20:00,55.4,42.6,30.39,ENE,60,5.0,8.0,62,0.00,,,0.00,0,Wunderground v.1.15,2013-04-23 00:20:00,
2013-04-22 20:25:00,55.2,42.8,30.39,NE,45,7.0,13.0,63,0.00,,,0.00,0,Wunderground v.1.15,2013-04-23 00:25:00,
2013-04-22 20:30:00,55.0,42.6,30.39,East,88,8.0,10.0,63,0.00,,,0.00,0,Wunderground v.1.15,2013-04-23 00:30:00,
2013-04-22 20:35:00,54.9,42.9,30.39,NE,53,7.0,11.0,64,0.00,,,0.00,0,Wunderground v.1.15,2013-04-23 00:35:00,
2013-04-22 20:40:00,54.7,42.8,30.39,NE,56,4.0,10.0,64,0.00,,,0.00,0,Wunderground v.1.15,2013-04-23 00:40:00,
2013-04-22 20:45:00,54.5,43.0,30.39,ENE,69,9.0,15.0,65,0.00,,,0.00,0,Wunderground v.1.15,2013-04-23 00:45:00,
2013-04-22 20:50:00,54.3,42.8,30.40,NE,51,5.0,11.0,65,0.00,,,0.00,0,Wunderground v.1.15,2013-04-23 00:50:00,
2013-04-22 20:55:00,54.1,43.0,30.40,NNE,30,4.0,13.0,66,0.00,,,0.00,0,Wunderground v.1.15,2013-04-23 00:55:00,
2013-04-22 21:01:00,54.0,43.3,30.40,North,11,5.0,8.0,67,0.00,,,0.00,0,Wunderground v.1.15,2013-04-23 01:01:00,
2013-04-22 21:06:00,53.9,43.2,30.40,NE,51,7.0,16.0,67,0.00,,,0.00,0,Wunderground v.1.15,2013-04-23 01:06:00,
2013-04-22 21:11:00,53.7,43.0,30.40,NE,55,6.0,11.0,67,0.00,,,0.00,0,Wunderground v.1.15,2013-04-23 01:11:00,
2013-04-22 21:16:00,53.7,43.4,30.40,ENE,69,5.0,11.0,68,0.00,,,0.00,0,Wunderground v.1.15,2013-04-23 01:16:00,
2013-04-22 21:21:00,53.5,43.2,30.40,ENE,69,7.0,9.0,68,0.00,,,0.00,0,Wunderground v.1.15,2013-04-23 01:21:00,
2013-04-22 21:26:00,53.4,43.1,30.40,NE,39,5.0,9.0,68,0.00,,,0.00,0,Wunderground v.1.15,2013-04-23 01:26:00,
2013-04-22 21:31:00,53.4,43.1,30.40,NE,34,5.0,11.0,68,0.00,,,0.00,0,Wunderground v.1.15,2013-04-23 01:31:00,
2013-04-22 21:36:00,53.4,43.1,30.40,ENE,74,10.0,11.0,68,0.00,,,0.00,0,Wunderground v.1.15,2013-04-23 01:36:00,
2013-04-22 21:41:00,53.5,43.6,30.40,ENE,58,7.0,7.0,69,0.00,,,0.00,0,Wunderground v.1.15,2013-04-23 01:41:00,
2013-04-22 21:46:00,53.5,43.6,30.40,NNE,32,5.0,8.0,69,0.00,,,0.00,0,Wunderground v.1.15,2013-04-23 01:46:00,
2013-04-22 21:51:00,53.3,43.4,30.41,NE,53,6.0,7.0,69,0.00,,,0.00,0,Wunderground v.1.15,2013-04-23 01:51:00,
2013-04-22 21:56:00,53.0,43.5,30.41,NE,34,6.0,9.0,70,0.00,,,0.00,0,Wunderground v.1.15,2013-04-23 01:56:00,
2013-04-22 22:01:00,52.8,43.7,30.41,NNE,33,4.0,5.0,71,0.00,,,0.00,0,Wunderground v.1.15,2013-04-23 02:01:00,
2013-04-22 22:06:00,52.5,43.4,30.41,ENE,59,7.0,8.0,71,0.00,,,0.00,0,Wunderground v.1.15,2013-04-23 02:06:00,
2013-04-22 22:11:00,52.6,43.5,30.41,NE,40,5.0,10.0,71,0.00,,,0.00,0,Wunderground v.1.15,2013-04-23 02:11:00,
2013-04-22 22:16:00,52.6,43.5,30.40,NNE,28,5.0,12.0,71,0.00,,,0.00,0,Wunderground v.1.15,2013-04-23 02:16:00,
2013-04-22 22:21:00,52.5,43.0,30.40,NNE,30,6.0,13.0,70,0.00,,,0.00,0,Wunderground v.1.15,2013-04-23 02:21:00,
2013-04-22 22:26:00,52.4,43.3,30.41,NE,34,7.0,13.0,71,0.00,,,0.00,0,Wunderground v.1.15,2013-04-23 02:26:00,
2013-04-22 22:31:00,52.3,43.2,30.40,NE,34,6.0,8.0,71,0.00,,,0.00,0,Wunderground v.1.15,2013-04-23 02:31:00,
2013-04-22 22:36:00,52.2,43.4,30.40,NE,34,6.0,8.0,72,0.00,,,0.00,0,Wunderground v.1.15,2013-04-23 02:36:00,
2013-04-22 22:41:00,52.1,43.3,30.40,NNE,22,6.0,8.0,72,0.00,,,0.00,0,Wunderground v.1.15,2013-04-23 02:41:00,
2013-04-22 22:46:00,52.0,43.3,30.40,NE,39,3.0,8.0,72,0.00,,,0.00,0,Wunderground v.1.15,2013-04-23 02:46:00,
2013-04-22 22:51:00,51.8,43.4,30.40,NNE,21,2.0,6.0,73,0.00,,,0.00,0,Wunderground v.1.15,2013-04-23 02:51:00,
2013-04-22 22:56:00,51.5,43.1,30.39,NNW,339,1.0,10.0,73,0.00,,,0.00,0,Wunderground v.1.15,2013-04-23 02:56:00,
2013-04-22 23:01:00,51.3,42.9,30.39,NNE,30,9.0,12.0,73,0.00,,,0.00,0,Wunderground v.1.15,2013-04-23 03:01:00,
2013-04-22 23:06:00,51.4,43.0,30.39,NE,43,8.0,12.0,73,0.00,,,0.00,0,Wunderground v.1.15,2013-04-23 03:06:00,
2013-04-22 23:11:00,51.5,42.8,30.39,NNE,26,5.0,7.0,72,0.00,,,0.00,0,Wunderground v.1.15,2013-04-23 03:11:00,
2013-04-22 23:16:00,51.5,43.1,30.39,NNE,18,4.0,7.0,73,0.00,,,0.00,0,Wunderground v.1.15,2013-04-23 03:16:00,
2013-04-22 23:21:00,51.2,43.2,30.39,NNE,31,4.0,8.0,74,0.00,,,0.00,0,Wunderground v.1.15,2013-04-23 03:21:00,
2013-04-22 23:26:00,51.0,43.0,30.38,NNE,30,5.0,10.0,74,0.00,,,0.00,0,Wunderground v.1.15,2013-04-23 03:26:00,
2013-04-22 23:31:00,51.0,43.0,30.38,NE,44,4.0,10.0,74,0.00,,,0.00,0,Wunderground v.1.15,2013-04-23 03:31:00,
2013-04-22 23:36:00,51.0,43.0,30.38,NNE,21,4.0,11.0,74,0.00,,,0.00,0,Wunderground v.1.15,2013-04-23 03:36:00,
2013-04-22 23:41:00,51.1,43.1,30.38,North,360,3.0,6.0,74,0.00,,,0.00,0,Wunderground v.1.15,2013-04-23 03:41:00,
2013-04-22 23:46:00,51.0,43.0,30.38,NNE,18,7.0,10.0,74,0.00,,,0.00,0,Wunderground v.1.15,2013-04-23 03:46:00,
2013-04-22 23:51:00,51.0,43.0,30.38,NE,37,5.0,7.0,74,0.00,,,0.00,0,Wunderground v.1.15,2013-04-23 03:51:00,
2013-04-22 23:56:00,51.0,43.0,30.38,NNE,31,10.0,10.0,74,0.00,,,0.00,0,Wunderground v.1.15,2013-04-23 03:56:00,